RH
9 8 8 8 11 10 17 48 54 90 80 65 70 91 82 70 65 72 70 78 75 76 77 72 73 83 96 96 90 95 97 98 93 79 54 16 5 9 8 9 8 7 6 5 4 4 4 8 12
10 8 8 8 11 10 22 28 54 65 49 55 80 75 86 96 68 64 72 87 79 85 80 81 83 87 97 96 96 97 98 98 94 93 29 11 5 8 9 9 8 7 6 6 5 6 9 17 15
9 9 10 9 13 27 37 48 50 41 41 42 63 71 82 82 85 91 63 69 80 82 53 66 88 92 95 94 92 96 98 98 94 96 38 10 5 7 10 9 8 7 7 8 7 8 10 12 18
18 16 11 24 72 78 34 23 31 42 32 44 63 60 74 73 93 91 80 59 58 56 50 79 84 98 99 99 98 96 97 98 97 91 25 12 6 9 10 9 7 7 7 8 10 13 15 20 22
34 38 28 94 97 61 25 25 22 56 63 69 76 78 83 87 78 57 54 57 56 90 88 90 81 97 99 98 96 96 97 97 97 69 22 10 6 9 9 8 8 8 8 10 12 15 20 31 39
56 52 73 95 96 62 44 44 58 75 93 60 91 81 61 54 53 55 63 46 51 85 97 97 96 95 96 98 97 97 96 88 41 21 19 12 7 8 8 8 7 8 11 9 10 13 19 37 47
76 79 74 90 79 64 60 55 96 96 91 92 69 64 51 39 49 66 52 64 57 96 95 95 95 99 97 97 96 96 87 83 91 54 16 12 12 7 7 9 16 12 10 12 17 44 46 52 51
91 83 73 79 71 54 47 81 72 71 81 96 73 62 62 69 74 70 63 78 55 95 97 98 96 96 95 97 96 96 91 71 48 27 10 10 17 26 39 16 10 12 32 72 70 55 58 66 59
92 87 63 75 72 44 51 75 74 88 84 60 80 78 78 75 72 83 74 85 94 81 94 94 96 97 96 96 95 89 72 58 40 39 36 45 64 24 11 15 52 87 76 69 71 77 66 57 49
96 81 54 60 77 75 70 69 68 67 64 77 84 76 91 82 65 93 94 92 99 99 96 97 97 97 94 96 95 97 91 73 74 69 50 22 12 23 43 63 81 77 70 55 52 52 53 45 42
92 82 65 55 52 59 58 49 42 42 46 54 62 77 96 83 96 92 68 77 92 99 96 97 95 92 50 33 40 44 34 25 15 10 12 30 62 66 69 59 71 60 62 60 56 39 37 36 35
86 93 76 62 71 64 49 48 55 45 73 60 76 77 96 97 98 90 100 96 100 97 96 92 67 41 17 7 7 10 12 12 15 34 57 68 65 66 49 60 66 61 67 63 49 44 39 20 14
85 91 84 62 65 53 40 61 76 79 96 93 75 88 97 97 96 98 97 96 93 93 86 51 20 10 8 10 11 12 18 33 55 64 70 66 57 58 63 64 48 53 49 48 44 30 22 19 18
85 92 100 70 51 43 52 71 77 88 93 98 97 94 96 97 92 73 67 61 48 14 13 14 12 9 12 18 34 37 38 50 56 57 76 46 31 32 38 42 40 37 25 19 17 18 19 18 19
90 77 64 65 58 55 68 86 88 96 64 94 83 65 59 41 45 14 13 21 20 14 28 23 16 17 25 37 41 46 72 65 62 66 32 21 25 31 28 24 16 16 17 17 18 19 20 21 22
70 83 90 74 71 74 74 93 94 84 57 94 87 45 15 15 16 24 51 34 33 26 13 17 22 32 43 37 63 80 66 54 40 50 27 27 22 17 17 16 16 20 21 21 20 21 22 24 24
67 91 95 93 98 99 90 54 44 60 50 66 21 21 15 15 15 14 11 9 15 21 17 18 22 26 36 37 47 44 34 48 56 31 22 17 18 19 18 20 25 28 30 30 29 28 28 28 28
99 99 97 97 98 99 88 53 27 16 25 29 20 16 11 12 12 10 10 12 18 43 28 46 27 36 51 42 20 33 43 53 20 19 19 20 21 23 24 27 30 32 34 36 37 36 34 32 28
97 75 96 79 68 84 83 46 34 35 43 41 21 36 14 14 12 14 15 17 18 17 17 22 26 35 50 30 39 34 36 19 20 22 24 25 27 28 30 32 34 36 38 39 38 35 32 29 29
79 82 77 62 67 93 79 87 42 33 30 44 55 14 20 11 10 9 13 15 19 22 20 22 29 42 42 30 25 18 17 20 21 24 26 28 31 33 36 38 38 39 37 33 31 30 30 31 33
70 60 64 60 70 40 90 61 19 31 54 58 49 26 39 32 14 11 11 14 18 23 21 27 48 46 34 21 17 17 18 21 24 26 27 27 25 24 26 27 28 27 26 25 26 31 31 33 39
87 78 73 72 80 71 78 54 51 36 48 70 76 49 35 29 21 15 15 13 15 30 25 41 40 43 45 20 18 18 22 24 27 28 26 24 21 20 22 23 24 26 29 29 31 40 59 42 47
63 66 72 75 79 34 36 66 81 67 56 53 78 65 29 32 41 23 25 23 22 21 23 37 32 39 36 20 21 24 25 28 23 19 18 18 18 20 22 23 23 22 24 27 36 59 70 80 79
65 86 65 66 77 56 97 77 59 97 84 71 76 42 25 48 52 18 24 19 22 23 19 20 34 26 30 25 26 23 20 19 18 18 18 18 18 19 19 19 21 27 34 37 50 92 100 88 76
69 71 86 73 55 42 54 54 49 65 56 38 73 34 41 32 24 19 18 16 31 20 24 39 24 23 19 17 17 18 18 18 18 18 18 18 19 21 30 37 42 48 41 47 49 55 54 52 47
64 78 44 47 60 56 70 73 84 79 75 52 38 27 20 16 16 17 17 17 50 24 40 27 16 18 20 18 18 19 17 13 12 12 14 17 29 50 49 48 72 62 62 72 53 56 70 77 79
51 50 53 55 52 59 99 83 59 50 32 50 55 28 18 18 18 18 18 31 33 26 29 18 21 21 18 18 17 14 14 12 13 15 34 56 65 100 76 81 91 59 86 75 65 76 97 93 96
64 40 62 84 69 42 33 50 45 32 55 86 74 58 20 18 19 19 19 22 18 19 18 18 21 19 16 15 16 15 20 33 41 70 97 98 78 95 63 59 60 69 95 78 90 100 95 97 100
58 30 42 36 29 24 18 25 26 50 57 82 66 60 43 19 20 19 19 18 18 17 17 16 15 14 15 23 34 52 82 91 96 76 79 94 95 96 65 98 64 76 77 90 100 100 100 97 96
91 33 27 43 70 54 21 17 28 54 90 77 63 41 43 29 27 26 22 17 16 17 18 17 15 26 59 88 83 99 97 82 76 66 66 94 91 57 73 87 76 88 98 98 98 97 95 91 76
Wind_Speed
21 25 27 27 29 34 34 30 29 28 22 26 29 27 29 31 33 35 32 31 32 37 40 37 40 39 30 35 39 35 35 35 32 25 24 18 18 19 16 14 12 11 11 11 12 12 12 12 11
20 22 25 26 26 29 25 26 26 19 25 25 29 21 25 31 35 38 32 35 37 40 41 42 40 36 32 34 33 34 34 35 28 27 23 19 20 20 17 14 12 12 12 13 14 14 14 15 16
20 22 23 25 21 15 10 16 19 24 24 29 27 22 24 25 24 25 25 28 37 41 44 44 43 37 39 37 38 34 39 38 31 27 23 20 22 20 17 14 14 12 14 15 15 16 17 17 17
17 19 21 18 5 7 15 21 23 24 30 30 28 26 29 33 29 26 30 35 39 42 44 44 42 38 42 45 41 38 40 42 32 21 22 21 21 18 15 15 13 14 15 15 17 17 17 18 18
17 16 18 6 10 14 17 21 19 22 24 24 22 25 26 28 32 35 36 33 41 39 42 39 45 36 50 47 47 41 38 31 26 17 17 19 21 18 15 15 16 16 17 17 19 21 20 20 18
16 16 7 8 15 21 21 21 19 22 23 27 24 21 22 28 29 33 35 36 35 35 48 44 39 50 48 46 42 41 32 17 11 12 14 18 18 17 14 16 17 19 19 22 23 22 22 21 20
16 15 13 17 17 22 25 28 21 20 30 21 24 26 27 32 35 30 32 32 30 23 20 28 30 23 43 46 39 31 21 18 11 10 16 14 18 14 15 16 20 22 22 24 24 18 19 15 16
17 11 12 20 21 24 30 17 21 21 24 24 25 26 30 26 23 20 24 22 28 33 27 34 36 41 44 41 27 15 15 13 11 13 14 11 9 12 15 20 23 22 23 23 23 23 15 20 26
15 10 15 24 30 30 23 18 18 17 18 26 25 32 31 24 21 24 23 26 30 33 25 30 32 25 31 23 21 21 19 18 11 12 13 15 15 17 17 20 20 20 23 25 25 22 21 25 26
16 15 15 27 32 26 19 19 20 18 21 25 25 29 23 25 22 21 14 23 20 28 26 23 31 14 6 19 18 15 16 13 13 15 17 16 13 14 19 21 22 23 23 20 18 18 24 28 32
22 17 20 22 21 22 19 21 22 23 31 31 29 24 17 17 21 16 12 16 19 21 25 28 15 14 20 15 13 13 11 10 13 14 10 11 12 14 19 20 13 15 15 17 22 22 25 30 33
24 21 22 19 17 17 14 14 16 24 24 26 20 19 24 18 17 16 15 24 24 32 17 17 22 21 17 15 13 11 11 11 10 8 10 9 15 12 18 15 19 21 22 23 25 23 26 29 32
25 25 27 20 14 17 16 10 13 18 14 10 17 15 14 15 11 17 14 13 10 13 20 21 20 16 14 10 8 6 3 5 7 10 10 11 12 17 20 23 22 21 25 24 25 26 29 30 33
25 21 15 16 22 19 15 17 20 15 9 14 10 7 6 11 7 16 13 14 13 15 14 17 15 12 9 7 4 3 6 9 10 11 10 17 19 21 22 23 22 24 26 23 26 28 31 33 35
18 14 22 22 22 19 18 16 4 8 12 11 9 12 6 7 9 9 9 9 8 10 9 11 9 8 6 5 5 7 6 10 14 14 19 21 21 22 21 22 20 22 26 28 28 30 33 34 35
18 17 18 18 17 20 11 7 8 9 4 8 13 9 7 8 7 6 6 4 5 6 7 7 8 6 5 5 4 6 11 15 18 21 21 20 19 18 18 20 23 24 28 30 31 32 34 36 38
16 8 12 14 19 11 12 13 9 8 8 11 9 7 7 7 6 7 8 8 8 7 2 2 2 3 5 6 9 11 16 17 19 19 16 16 17 18 20 23 26 30 32 33 34 35 37 39 42
10 8 11 14 14 14 12 9 10 8 6 7 9 6 5 6 7 5 4 1 3 3 2 3 5 6 7 10 14 16 16 18 17 14 16 18 20 23 26 29 31 34 36 37 38 40 42 44 47
15 17 7 9 10 10 11 10 7 9 9 6 6 3 6 5 7 6 5 2 4 4 4 7 9 10 13 14 13 14 15 12 15 17 19 23 26 28 31 34 37 40 42 43 44 45 48 50 50
20 15 11 10 6 5 3 4 3 6 5 1 4 1 1 2 4 5 6 4 4 8 10 11 14 14 14 14 12 12 12 16 19 22 25 28 31 34 36 39 42 43 46 48 50 51 52 53 53
5 2 7 8 4 2 2 9 8 6 5 4 4 6 5 5 4 3 3 2 3 7 11 14 14 14 13 11 12 15 16 20 24 27 30 33 37 40 43 45 47 49 51 53 54 54 54 55 55
6 4 6 12 11 5 13 9 8 8 10 11 5 3 3 4 9 6 6 8 8 8 11 12 11 11 12 14 16 19 22 25 29 32 35 38 42 45 46 48 50 51 51 53 55 55 55 56 57
8 11 5 10 12 11 9 16 13 15 19 18 16 6 6 4 5 7 8 8 10 10 9 8 9 11 12 17 21 24 27 30 34 37 40 44 46 48 48 49 51 53 55 55 54 53 56 61 64
5 7 6 9 15 16 16 17 13 8 9 8 4 5 7 4 3 6 4 6 8 9 8 8 10 14 19 22 26 29 32 36 39 41 44 46 48 50 52 53 54 55 56 58 56 57 65 67 70
6 7 12 13 14 13 16 20 9 8 4 3 3 7 8 5 3 4 4 5 5 7 10 13 16 20 24 27 29 31 36 40 43 45 48 49 52 54 55 57 58 59 62 61 59 63 67 69 70
12 8 14 22 20 19 18 17 12 7 4 3 5 7 3 4 5 5 5 8 10 12 16 18 20 24 27 30 33 36 41 46 49 50 51 53 55 56 59 61 59 64 63 64 64 66 67 70 71
16 14 14 18 18 15 16 19 16 10 12 9 4 6 7 7 9 8 9 12 13 18 22 24 26 29 32 35 38 41 44 48 50 53 52 56 51 43 63 59 65 65 63 66 67 66 70 73 69
16 18 13 12 16 14 14 21 20 16 13 8 10 8 9 9 11 12 14 17 20 23 26 30 33 36 38 40 41 42 44 47 49 47 46 50 50 54 65 63 63 61 64 68 65 69 73 71 75
21 15 16 17 14 15 14 19 21 18 17 16 15 15 14 14 14 16 18 19 21 25 29 34 38 42 44 44 44 48 43 46 45 49 47 54 47 60 61 63 66 64 67 67 65 73 78 75 77
24 17 18 17 15 19 19 17 19 21 20 22 23 20 18 16 20 22 23 24 26 29 34 38 42 42 38 37 43 46 45 51 53 51 52 58 55 63 55 67 66 68 68 69 72 74 76 79 83
Wind_Direction
220 227 233 235 236 235 235 237 239 247 234 235 242 242 223 227 234 247 258 265 267 270 281 279 278 284 273 265 258 267 276 268 273 278 278 264 238 227 231 238 248 261 270 280 282 286 287 291 293
217 223 230 230 233 237 239 237 236 233 234 228 242 254 253 235 233 240 257 260 262 268 278 277 273 274 276 261 269 275 262 259 265 274 262 247 225 225 231 244 259 268 281 282 280 286 291 301 309
216 221 225 229 230 241 224 226 229 230 234 230 234 241 247 265 261 258 264 266 271 273 281 278 278 281 276 270 272 264 256 253 258 275 258 238 221 223 233 249 260 276 281 291 302 304 302 309 312
216 224 227 230 196 162 193 220 220 219 223 231 242 261 266 263 261 263 264 273 280 278 277 279 274 268 269 263 269 255 253 250 257 252 243 227 221 225 237 253 270 278 285 296 303 308 308 310 309
212 214 225 202 179 173 210 221 225 218 228 245 258 250 254 253 261 269 270 271 275 270 270 265 266 252 259 263 255 257 237 241 252 238 225 218 220 225 240 260 271 283 294 302 306 313 308 308 310
207 216 193 184 180 181 200 215 226 226 239 248 243 246 259 258 272 272 266 270 262 272 249 223 225 252 248 252 234 236 228 228 209 207 211 214 221 235 250 269 286 293 299 304 304 306 307 308 307
211 212 188 219 185 185 191 210 221 240 236 241 246 262 270 276 271 263 267 272 267 249 246 253 224 225 232 223 225 212 199 206 181 195 209 216 230 246 268 287 287 285 296 303 308 317 324 341 324
223 209 207 216 193 198 203 218 229 250 263 271 261 284 276 270 264 251 263 270 273 237 255 248 229 225 223 215 199 173 164 155 170 194 216 232 265 268 262 276 282 300 303 307 302 294 309 328 326
213 200 208 214 212 217 219 233 236 259 274 273 277 286 280 245 250 268 239 221 248 254 269 257 211 205 209 200 186 167 171 161 163 197 214 226 233 258 279 288 308 309 302 301 301 305 294 303 308
208 184 213 221 220 237 248 251 267 256 269 270 278 279 260 245 251 255 217 222 229 238 249 233 194 219 192 106 103 107 131 155 181 206 225 250 275 288 294 302 312 301 295 299 322 315 298 303 299
220 195 229 225 227 240 257 272 266 261 266 261 270 275 256 243 246 235 233 229 237 229 187 184 181 154 108 123 138 156 172 200 227 240 258 272 285 298 300 305 296 299 306 297 303 301 302 302 303
210 208 233 219 216 240 244 269 275 267 283 269 235 263 252 240 220 216 192 226 223 180 156 152 110 114 132 147 160 174 192 212 225 248 271 299 305 285 308 310 308 291 297 304 306 291 293 301 299
200 221 229 216 250 251 258 284 303 299 299 248 234 254 210 187 200 201 230 194 115 117 104 119 131 137 148 153 157 171 207 257 266 257 274 275 292 290 299 300 300 293 297 294 293 300 304 309 316
201 211 248 223 239 254 272 289 299 280 275 181 224 121 136 173 97 75 64 87 126 133 140 134 138 138 134 135 134 224 244 253 284 285 289 289 296 298 299 300 301 307 302 300 305 311 313 316 315
203 229 231 241 258 272 278 292 338 193 166 153 132 90 95 86 72 87 95 129 146 134 150 135 129 127 162 184 229 261 267 280 290 301 295 298 297 299 303 306 309 311 306 305 309 307 309 309 310
216 233 252 262 285 276 239 149 103 105 69 96 91 106 102 108 109 119 124 178 168 156 149 147 140 163 195 232 244 279 298 300 295 288 296 301 301 305 307 308 305 304 304 306 306 305 305 308 309
230 185 242 250 68 132 142 99 108 90 77 77 87 105 109 103 118 132 155 176 152 119 126 56 75 280 282 310 305 291 284 291 286 295 307 306 306 303 302 305 310 311 310 309 307 307 307 308 308
173 81 51 87 65 81 120 107 98 85 48 73 73 84 114 133 140 150 174 150 85 157 203 254 285 285 303 299 288 280 285 289 296 306 305 303 308 310 311 313 312 310 310 310 309 309 309 307 306
131 137 146 136 100 107 135 106 90 61 16 55 55 83 108 140 136 133 121 78 6 341 318 324 305 300 296 295 287 282 281 292 296 301 309 312 313 313 312 310 308 309 310 310 309 308 306 306 306
134 143 151 148 111 114 125 45 149 105 70 74 318 342 135 132 116 109 77 41 9 325 318 311 298 299 300 300 285 278 289 298 304 311 311 311 312 309 308 307 309 310 309 307 307 307 307 306 305
115 169 165 169 119 198 204 224 182 180 190 200 238 277 332 327 351 350 1 346 310 297 304 311 305 303 297 285 283 290 301 305 308 310 310 308 306 306 308 310 310 309 309 309 308 306 305 305 305
79 76 193 176 180 206 232 257 254 268 250 253 258 244 270 288 292 319 321 311 300 292 300 293 293 283 287 288 294 302 307 307 306 305 305 304 307 310 310 309 309 310 307 305 305 302 304 307 307
98 113 136 166 195 223 230 241 256 266 269 269 304 267 313 272 271 326 311 300 302 295 292 284 272 274 285 296 301 302 304 305 303 304 305 308 309 308 306 306 303 301 302 302 300 300 302 304 306
140 163 190 195 207 232 228 239 236 301 325 277 314 265 298 303 303 321 301 289 287 291 299 289 277 293 298 298 299 301 306 302 303 305 305 303 302 301 302 300 302 304 304 303 304 300 301 303 303
174 220 248 244 235 247 241 243 259 246 242 259 272 271 290 340 338 341 331 310 294 310 299 289 292 292 294 296 299 303 301 301 301 302 302 303 303 304 305 308 308 308 308 307 304 300 301 303 305
225 228 232 240 239 256 251 240 226 234 230 254 258 288 268 312 307 319 299 301 286 292 286 291 294 296 296 298 300 299 299 301 303 304 307 308 309 310 312 309 309 310 306 307 305 302 302 304 305
275 263 255 245 246 242 244 244 246 265 249 244 239 273 278 293 293 293 288 287 289 291 294 297 299 297 297 297 297 300 301 302 304 309 313 313 314 292 305 304 302 305 303 304 303 300 298 301 303
258 258 241 245 235 236 242 251 259 264 252 262 246 262 277 279 284 291 295 295 295 298 300 299 298 296 295 294 296 300 303 303 307 305 300 298 302 289 298 302 302 301 297 299 300 301 303 301 302
231 231 237 252 257 256 253 253 256 263 255 248 251 257 265 272 283 284 286 290 292 294 295 293 292 293 294 296 298 303 295 299 299 303 303 300 299 292 300 296 301 302 300 300 298 298 299 300 303
237 234 235 252 258 262 256 244 253 253 254 259 261 256 251 265 280 286 286 285 287 289 289 290 293 295 292 289 294 295 297 300 302 301 300 299 301 298 296 293 302 300 300 299 301 301 301 302 305